Vorticity
7 10 11 10 9 10 15 16 12 9 10 10 9 9 10 11 11 10 10 9 11 14 13 10 8 8 8 8 7 6 6 6 5 4 4 5 4 3 6 5 3 3 4 5 5 7 10 12 14 16 17 13 9 5 4 6 6 7 9 12 13 13 11 9 9 9 10 7 4 5 5 7 5 3 3 3 4 2 5 6 2 3 3 2 9 16 15 9
6 7 9 11 10 8 10 15 17 13 9 9 10 9 9 10 10 9 10 10 11 13 15 13 10 8 7 8 8 8 7 7 6 6 7 5 2 3 6 6 5 4 3 3 4 4 7 10 12 15 17 15 12 9 5 4 6 7 8 11 13 9 7 8 9 10 9 6 3 2 4 5 3 1 2 4 5 4 7 8 4 2 -1 1 6 11 11 7
6 6 7 9 11 10 8 9 15 18 14 10 9 10 10 9 9 9 10 11 12 12 14 15 13 9 7 7 8 8 8 8 8 6 6 5 4 4 4 6 6 4 2 2 3 4 6 7 11 13 16 17 14 12 10 6 4 6 8 11 12 7 5 7 9 8 5 7 7 2 3 5 3 4 6 5 4 5 7 6 3 1 2 6 7 10 12 6
5 5 6 7 9 10 10 8 8 14 18 15 10 9 10 10 9 9 9 10 11 12 13 15 16 12 8 7 7 8 8 8 7 6 7 7 6 5 4 5 6 5 4 2 3 4 5 6 9 10 13 16 15 15 13 9 5 5 7 9 11 9 7 8 7 6 5 8 8 2 2 7 7 6 6 5 5 6 5 3 2 2 6 10 7 8 11 8
7 5 4 5 6 8 10 10 7 8 13 18 16 11 9 10 10 10 10 9 9 9 11 13 16 15 12 9 8 7 7 8 7 6 8 8 7 6 5 4 5 5 4 4 3 4 5 5 7 8 11 12 14 18 15 10 7 5 7 8 9 10 9 9 7 6 7 8 5 1 2 9 9 6 5 5 5 5 4 3 2 1 6 12 10 9 10 10
9 8 6 4 4 5 8 10 10 7 7 13 18 16 12 9 10 10 10 10 9 7 8 10 12 14 14 12 10 9 8 8 7 6 8 8 7 7 6 4 4 5 5 5 4 4 5 5 6 7 9 10 13 18 15 13 8 3 6 8 9 10 8 8 7 7 9 9 4 0 3 7 5 5 7 5 4 3 4 5 4 4 8 10 7 7 9 10
8 9 9 7 4 3 5 7 10 9 6 6 12 18 17 12 9 10 10 10 10 8 6 7 9 11 13 13 12 12 11 10 8 7 8 7 7 8 7 6 5 5 7 7 5 4 5 6 6 6 7 8 13 16 14 15 11 2 4 7 7 8 7 8 8 9 11 7 2 1 4 5 0 4 6 4 4 3 3 6 6 8 10 9 5 4 5 5
7 7 9 10 8 5 3 4 7 9 9 6 6 11 17 17 12 10 10 10 10 11 8 7 7 9 11 12 13 13 13 13 11 9 8 7 7 8 8 8 7 5 6 8 6 4 3 5 5 5 6 7 11 12 13 17 13 4 4 7 7 8 9 10 8 12 13 6 1 3 6 3 -1 4 4 2 5 3 3 4 5 6 8 10 7 3 2 3
8 6 8 10 11 9 5 4 4 6 9 9 6 5 11 17 17 12 10 10 10 10 11 9 7 8 9 10 12 13 14 14 13 11 9 7 7 7 8 8 7 6 6 6 6 4 4 5 4 5 5 6 8 8 11 19 17 6 4 5 6 8 9 8 8 13 12 4 1 3 5 2 -0 5 3 4 10 7 4 4 4 4 5 11 10 4 3 5
11 10 8 7 10 12 9 6 4 5 6 9 10 6 5 11 17 17 12 10 10 10 11 11 9 8 7 7 9 11 12 12 14 13 11 9 7 7 7 8 8 6 5 5 7 6 5 5 4 4 4 4 6 7 10 19 18 8 4 5 6 7 8 8 8 11 12 5 1 3 5 3 1 5 5 7 14 11 4 3 7 6 3 7 8 3 2 5
6 9 11 9 8 10 12 9 6 5 5 6 9 10 7 5 11 18 17 12 10 10 10 10 11 10 8 6 5 9 11 11 13 14 13 11 9 8 6 7 8 8 6 6 7 7 5 4 3 3 4 5 4 6 11 16 18 10 3 3 7 6 5 8 6 8 14 8 0 3 7 5 2 5 8 11 15 18 13 2 6 13 7 3 4 2 -0 1
11 6 7 10 9 8 11 12 9 6 5 5 6 9 11 7 5 11 18 17 12 10 10 10 11 11 10 8 6 8 9 8 9 12 14 13 11 9 8 7 8 9 7 6 7 8 6 4 3 3 3 4 3 6 10 14 18 14 4 1 5 5 4 8 8 7 11 7 -1 2 7 4 4 8 11 11 10 15 17 5 2 11 11 7 5 5 4 1
26 18 9 6 8 8 9 11 12 9 7 6 5 6 10 11 6 5 12 19 17 12 10 11 10 11 11 10 10 9 7 6 7 9 11 13 13 10 10 9 8 8 9 7 5 6 6 4 4 4 3 3 3 4 8 14 17 14 8 2 1 5 4 5 8 8 8 8 2 1 5 3 7 13 10 9 5 -0 5 9 4 1 7 11 9 10 10 5
29 30 25 13 6 6 8 9 11 11 9 7 5 5 6 10 10 6 5 13 20 16 12 11 10 11 10 10 12 10 8 7 7 9 10 11 13 12 10 10 9 8 10 10 6 4 5 5 3 3 3 3 3 4 6 12 15 14 11 5 2 4 4 3 6 7 7 10 8 3 6 8 8 10 6 6 7 3 1 6 7 1 3 8 7 10 11 8
32 30 31 28 16 6 4 7 9 10 11 8 6 5 5 7 11 11 5 5 15 19 16 12 11 11 8 9 12 11 11 10 9 10 11 10 12 13 12 10 9 8 7 9 9 7 5 4 4 3 4 2 2 3 4 8 12 14 14 8 3 4 5 3 4 7 8 12 11 5 10 14 7 6 8 6 6 8 7 5 7 5 3 5 5 8 10 10
38 33 30 32 30 18 5 3 7 9 10 10 8 6 5 4 7 12 10 6 7 14 18 15 13 11 6 8 12 11 12 13 11 10 10 11 12 14 13 11 11 10 7 6 8 9 6 4 4 4 4 2 2 3 3 7 9 12 18 13 3 3 7 5 4 7 11 14 10 6 10 11 7 6 9 11 9 6 9 10 7 7 10 8 4 4 5 7
37 36 33 30 33 31 17 4 3 7 9 9 9 8 6 4 5 8 12 10 5 8 14 15 16 13 7 8 11 10 10 11 10 10 11 12 11 11 12 12 12 11 8 6 6 8 8 5 5 4 3 2 2 3 2 4 7 10 19 19 6 2 6 6 6 8 10 11 10 10 7 5 6 8 8 12 13 6 5 8 8 16 25 20 11 6 3 4
33 34 34 32 31 34 30 15 4 5 7 8 9 10 7 4 3 4 9 13 9 5 8 12 15 14 11 10 9 8 8 9 10 10 11 12 10 8 10 11 11 10 7 6 5 6 8 6 6 5 2 2 1 1 3 4 8 11 17 20 11 3 4 6 7 10 8 8 11 11 9 6 4 5 6 6 6 6 6 7 9 8 3 5 13 11 5 6
30 31 33 34 32 31 34 27 13 6 6 7 8 9 9 6 3 3 5 11 13 8 5 8 11 13 13 12 11 9 7 8 10 11 13 13 11 10 10 10 10 10 8 6 6 5 6 6 5 3 1 2 2 3 6 5 7 11 15 17 14 6 4 7 9 9 9 10 11 8 8 8 5 4 7 12 13 12 8 7 12 8 -7 -7 6 7 4 8
26 30 32 34 34 31 32 32 24 12 6 6 7 9 10 7 5 4 4 7 12 12 6 3 7 11 11 11 12 12 10 8 7 9 13 14 12 11 10 8 9 10 10 9 8 7 6 6 4 4 5 5 5 5 6 5 4 8 14 15 15 9 5 11 12 10 11 11 9 6 4 4 6 7 8 18 20 11 10 10 10 13 6 -3 2 9 9 10
21 28 32 35 35 33 31 31 29 21 12 7 5 7 9 8 7 5 3 3 8 14 11 2 3 8 11 11 9 11 12 11 9 8 11 13 12 11 9 9 9 7 10 11 8 7 5 5 6 5 6 6 6 6 5 5 3 5 10 14 17 13 8 11 11 11 10 7 6 7 6 3 3 3 6 14 10 10 25 20 9 13 9 0 4 13 12 12
18 26 32 37 37 34 32 31 31 26 18 11 5 5 7 9 9 6 3 2 4 12 14 7 3 6 11 12 8 7 10 12 12 9 9 12 13 13 10 9 10 8 10 9 6 6 4 6 7 4 5 6 6 6 5 5 4 4 6 11 18 17 13 13 10 9 8 5 4 4 7 7 5 4 8 10 2 15 32 12 2 14 9 4 6 5 4 8
19 26 32 38 39 37 32 29 29 28 25 17 8 6 7 10 10 6 2 2 3 7 12 12 10 8 9 11 10 5 6 10 13 12 9 9 11 14 13 10 11 9 7 7 7 7 6 8 8 4 5 5 5 6 5 5 5 4 5 8 17 17 14 13 9 6 6 7 4 3 6 6 7 5 7 13 1 8 22 1 -1 16 10 7 6 3 3 4
19 23 32 39 42 41 37 33 30 28 28 22 16 10 7 9 11 9 4 2 3 4 6 10 12 12 9 9 9 6 5 6 9 14 12 9 10 12 13 12 11 10 7 7 8 7 8 11 9 6 5 4 5 5 5 6 4 4 5 7 13 15 12 8 8 6 4 8 7 6 7 4 8 7 8 19 5 3 13 -9 -12 10 10 7 6 6 7 5
22 26 33 40 41 38 37 40 38 30 27 25 23 14 6 8 10 9 7 4 3 3 3 6 10 15 14 8 7 6 6 5 7 12 13 11 11 10 13 13 10 12 11 8 7 7 9 11 10 7 6 5 5 5 6 6 4 4 5 7 10 13 14 8 7 8 3 7 9 6 7 5 8 8 9 14 3 13 24 -4 -12 3 7 9 7 5 8 5
33 32 32 40 39 29 27 37 39 29 26 29 25 13 4 6 9 9 9 5 4 3 2 4 8 13 15 11 11 10 7 8 9 10 12 13 12 10 12 12 12 13 12 9 6 6 8 10 10 8 6 6 6 5 6 5 5 4 6 12 11 12 16 9 6 7 4 6 7 3 3 6 8 8 10 7 -2 12 15 -5 -2 -2 -3 9 8 5 8 4
38 30 30 40 31 19 21 29 33 29 29 34 27 16 8 6 7 9 10 6 4 4 2 4 8 11 14 11 12 15 11 10 8 7 11 15 13 12 11 10 13 13 11 9 7 8 10 10 9 8 7 6 6 6 6 6 5 4 10 14 12 15 17 10 8 8 6 4 0 1 5 6 7 5 8 7 2 9 2 -8 4 1 -3 7 5 7 10 7
35 30 34 41 25 17 21 22 30 33 33 36 29 20 15 10 7 7 10 7 6 8 5 6 11 11 12 11 9 12 14 12 10 10 13 13 13 13 13 11 11 12 13 10 9 11 12 11 10 9 9 6 6 6 6 7 5 5 15 14 11 18 16 11 12 9 7 2 -6 -0 7 5 5 4 5 5 5 11 6 0 8 9 6 6 5 8 5 3
27 30 31 33 22 16 19 20 30 36 34 36 33 26 19 12 8 5 6 7 8 12 7 5 10 9 10 13 10 8 11 12 10 12 14 12 11 10 11 13 11 12 14 12 13 13 11 12 11 10 11 9 8 7 7 9 7 7 15 12 11 18 15 10 12 9 5 -2 -7 -1 3 3 5 4 4 3 3 7 6 6 11 12 11 11 10 9 5 6
26 29 28 29 25 21 18 14 25 35 34 30 28 31 27 16 10 6 7 8 8 11 10 7 8 8 9 13 13 9 9 12 10 9 11 12 13 12 10 12 13 13 14 12 13 14 12 11 10 8 9 9 9 10 9 9 8 11 14 11 14 20 15 9 9 8 -0 -7 1 8 4 4 5 2 4 4 2 3 3 7 14 15 13 11 9 7 6 8
29 29 31 27 24 22 9 3 19 32 36 30 21 27 29 22 15 8 10 13 10 9 11 12 9 6 9 12 15 13 8 10 9 6 9 10 11 11 7 7 9 10 12 11 11 13 12 9 9 10 8 6 8 10 12 9 6 10 12 11 15 17 9 5 7 2 -8 -4 12 14 5 4 3 0 3 3 2 3 3 5 8 10 8 4 5 5 4 4
29 26 24 13 12 13 3 13 27 26 35 35 24 28 28 24 22 14 12 12 10 11 10 12 11 6 9 11 13 16 14 12 11 8 9 10 12 12 8 8 9 7 8 10 10 11 12 11 11 12 10 7 5 7 10 8 4 6 9 10 11 9 2 -0 2 -3 -7 4 14 11 5 -0 -3 2 3 -2 -1 3 4 3 -0 -1 -3 -3 2 4 4 4
19 15 11 5 8 11 13 30 24 11 28 27 19 32 28 22 27 21 18 11 8 13 9 8 11 6 9 12 9 10 14 15 13 11 10 10 12 14 11 11 11 9 9 10 9 10 11 11 10 10 10 9 5 4 5 5 5 3 5 10 9 4 -0 -2 -1 -1 1 6 8 7 5 -4 -5 4 4 -3 -0 2 2 2 0 -2 -2 1 3 4 5 2
14 5 13 14 12 19 26 23 3 -0 21 18 14 28 24 22 27 21 19 15 7 10 11 9 9 5 8 16 14 10 10 13 13 12 12 9 9 10 10 10 8 8 10 10 10 10 9 10 11 9 10 11 7 5 7 11 13 9 9 14 10 2 1 4 4 2 1 2 5 5 -2 -9 -4 4 6 2 1 0 -2 -1 2 2 2 4 4 4 4 2
16 5 16 18 15 29 25 5 -1 6 19 24 23 26 22 24 28 21 20 19 10 9 13 13 11 11 10 10 13 13 10 11 12 12 13 12 11 12 12 11 9 8 8 9 10 11 9 9 13 12 11 13 10 5 8 11 12 13 11 8 8 6 2 5 6 4 4 4 5 1 -7 -6 2 10 13 7 -0 -1 -1 0 4 3 1 2 2 3 3 6
15 14 17 15 19 26 10 -0 11 13 20 33 29 22 20 20 22 20 18 18 12 9 11 12 14 16 12 6 8 11 9 9 11 11 12 13 13 14 13 12 11 9 8 8 9 11 10 9 13 14 11 13 12 6 7 9 9 12 8 -0 9 15 4 0 3 4 7 7 4 0 -2 3 9 10 12 7 -0 -1 -0 -0 1 0 1 4 3 3 7 11
9 16 14 17 27 18 2 9 16 12 23 32 21 17 16 13 16 18 16 14 11 8 7 8 14 15 11 8 8 9 8 8 8 9 11 12 11 12 12 12 11 10 9 9 9 10 11 10 11 13 12 12 14 10 8 10 11 11 7 6 12 14 6 1 -0 2 8 7 5 4 3 7 9 3 4 5 3 2 2 0 -1 -1 2 4 2 3 10 13
17 11 15 32 37 13 -2 9 21 26 27 17 9 11 12 15 19 15 14 14 9 9 8 6 13 15 14 15 12 9 8 8 7 8 9 10 11 12 12 12 12 10 9 10 11 10 10 11 11 12 12 10 12 14 8 6 10 11 11 14 12 7 8 6 -2 -2 5 5 5 5 3 6 4 -2 0 4 5 8 9 2 -3 -3 1 3 1 3 8 8
16 18 38 44 25 -1 -12 2 30 34 10 -4 2 8 17 28 22 10 12 13 10 12 10 8 12 12 15 19 14 8 8 8 9 10 9 10 11 12 13 13 13 12 9 9 10 11 11 11 11 12 13 9 9 13 11 4 6 10 12 13 12 8 8 7 1 -2 -1 0 1 -1 -1 3 1 -1 2 3 4 10 10 3 1 4 6 5 4 7 8 5
34 43 44 21 -2 -6 -1 19 42 20 -19 -13 9 17 27 30 15 8 12 11 10 13 11 11 15 13 15 16 10 9 10 8 9 10 11 12 11 11 12 12 13 13 12 10 10 11 12 12 11 11 13 11 7 9 12 9 6 6 8 9 12 11 6 5 6 2 -3 0 2 -2 -3 3 4 3 4 3 5 7 3 1 3 4 5 4 4 6 3 -2
41 30 9 -3 -1 9 22 37 32 -10 -29 3 25 23 25 20 10 9 10 7 8 10 11 12 12 13 16 13 9 9 10 9 8 8 10 14 13 12 12 12 13 15 12 9 9 9 11 14 12 11 13 13 11 10 13 16 13 9 10 10 12 13 7 4 6 4 -1 1 4 1 -2 2 6 5 4 4 5 3 -2 -2 1 2 2 2 1 -0 -2 -1
13 8 1 5 16 26 34 29 1 -27 -14 23 28 19 24 24 15 8 5 9 11 9 11 12 12 14 13 12 11 9 8 10 11 10 10 13 15 13 13 13 14 16 13 10 12 11 11 14 12 10 13 12 12 14 14 17 18 14 13 13 15 16 10 5 5 3 -1 -2 0 1 -0 2 5 4 5 6 4 2 0 -0 1 3 3 2 1 0 2 6
10 9 11 20 33 40 25 -5 -25 -19 15 33 15 10 30 31 17 8 5 9 12 11 9 8 10 14 12 11 12 9 8 8 9 11 12 13 15 14 13 13 14 18 16 9 10 12 10 13 12 11 15 14 10 14 17 19 19 14 10 8 11 16 15 8 4 3 2 1 1 0 -0 3 5 2 0 1 0 0 2 4 6 7 6 4 2 1 3 4
23 22 34 41 36 18 -13 -30 -22 1 29 29 0 5 30 24 14 15 10 7 10 11 12 11 8 9 12 11 10 10 8 7 7 10 12 15 16 13 11 13 13 16 17 11 11 12 11 13 15 13 14 15 10 9 12 14 14 11 9 7 7 13 17 13 6 2 2 3 4 2 -0 1 4 4 0 -1 -1 -0 2 5 8 9 6 1 -2 -2 -1 0
37 39 35 14 -9 -22 -21 -6 9 21 32 18 -2 11 22 11 13 20 13 11 12 7 12 16 10 9 12 11 11 11 8 9 10 9 13 16 14 11 10 13 14 12 15 18 16 13 12 15 16 10 6 8 7 5 4 6 10 12 12 13 11 11 15 16 13 8 3 4 7 6 3 1 0 1 1 1 5 8 7 5 4 3 -0 -4 -4 -0 4 11
23 18 2 -11 -10 -2 15 22 15 23 33 15 4 10 1 -3 13 17 11 14 11 6 12 14 10 11 11 9 13 12 7 10 11 11 17 17 9 8 10 13 14 10 13 18 15 13 12 14 16 10 4 5 9 13 12 8 10 14 14 16 17 14 14 15 15 11 6 6 8 8 8 7 3 2 1 1 6 10 10 9 7 5 2 1 6 12 17 20
-2 1 -0 8 11 6 16 16 3 16 31 17 6 -3 -19 -1 26 18 9 13 8 9 15 13 14 15 8 8 15 14 9 11 12 14 20 16 6 7 12 16 16 12 13 16 13 11 11 12 16 12 5 6 5 7 12 10 9 10 9 11 13 14 15 15 13 12 10 7 6 7 9 10 10 10 8 6 5 4 3 3 2 2 4 9 13 16 15 13
4 8 11 16 12 4 3 -1 -1 21 29 10 0 -10 -24 1 32 22 8 9 7 8 11 13 18 17 12 12 15 14 11 9 12 17 19 14 7 5 10 18 21 15 12 13 10 9 9 12 16 10 5 11 10 2 6 11 11 9 6 5 9 12 15 14 11 11 11 9 7 6 7 7 8 8 9 10 8 4 2 3 4 8 12 14 12 11 10 9
7 7 10 10 15 17 7 -3 6 29 31 3 -16 -12 -10 4 26 21 6 3 5 5 7 10 13 16 15 12 11 13 12 8 12 17 16 12 9 7 8 13 19 17 13 11 9 8 8 12 17 8 -2 9 17 8 3 6 8 7 7 5 8 13 16 14 12 10 10 9 9 8 6 5 4 3 3 6 7 7 8 9 11 11 10 8 9 13 15 12
6 6 9 8 12 17 15 18 20 22 30 16 -14 -15 2 13 22 15 1 0 3 2 5 8 12 17 14 4 5 13 13 10 15 19 16 10 7 9 8 10 16 19 17 14 10 8 6 8 14 10 -4 -1 11 8 3 7 9 8 9 8 7 13 17 15 13 10 9 9 11 10 7 4 4 2 4 7 9 11 11 10 9 5 3 6 12 17 15 10
3 3 6 5 8 12 13 26 30 17 19 19 0 -9 -0 14 25 14 -1 1 3 1 5 8 12 17 11 1 3 11 13 13 18 21 15 7 6 8 8 9 14 18 19 17 9 6 5 4 9 13 2 -3 5 9 9 12 11 7 9 11 13 14 15 13 10 6 6 9 12 12 9 6 5 4 4 6 7 7 7 5 3 3 6 9 11 11 7 4
3 9 13 6 3 5 4 12 25 20 10 11 10 -3 -11 9 29 17 -0 -1 3 8 8 5 9 14 12 9 7 8 13 17 20 22 15 8 8 7 7 11 13 14 18 17 8 4 4 2 6 14 8 -3 -5 3 10 9 2 -1 -1 3 12 18 16 11 8 6 6 8 12 14 14 9 6 6 6 4 2 1 1 4 5 9 12 11 7 5 2 2
Height
5698 5698 5698 5698 5699 5699 5700 5701 5702 5703 5704 5705 5707 5708 5709 5711 5713 5715 5717 5720 5722 5725 5728 5731 5734 5738 5741 5744 5748 5751 5753 5757 5759 5764 5769 5770 5769 5771 5774 5777 5779 5781 5783 5784 5786 5787 5789 5790 5791 5793 5795 5797 5799 5801 5803 5804 5806 5809 5812 5815 5816 5818 5819 5819 5821 5822 5823 5824 5824 5825 5826 5827 5829 5831 5834 5835 5835 5836 5838 5839 5840 5841 5842 5844 5845 5845 5846 5848
5692 5692 5692 5692 5692 5693 5694 5695 5696 5697 5698 5699 5701 5702 5704 5705 5707 5709 5712 5714 5716 5719 5722 5725 5728 5732 5736 5739 5742 5745 5749 5751 5755 5761 5765 5763 5764 5768 5771 5773 5775 5777 5780 5781 5783 5784 5786 5788 5789 5791 5792 5794 5796 5798 5800 5802 5804 5807 5810 5812 5814 5815 5815 5816 5818 5819 5821 5822 5822 5823 5824 5825 5827 5829 5831 5832 5833 5835 5836 5837 5838 5839 5841 5843 5844 5844 5845 5846
5686 5686 5686 5686 5686 5687 5688 5689 5689 5690 5692 5693 5694 5696 5698 5700 5702 5704 5706 5708 5710 5713 5716 5720 5723 5727 5730 5733 5737 5740 5744 5746 5751 5758 5759 5757 5760 5765 5767 5769 5772 5774 5776 5778 5780 5782 5784 5786 5787 5788 5790 5791 5793 5795 5797 5799 5802 5805 5808 5810 5810 5811 5813 5814 5815 5817 5818 5820 5820 5821 5823 5824 5825 5827 5828 5830 5831 5833 5834 5835 5836 5837 5839 5840 5842 5842 5843 5844
5680 5679 5679 5680 5680 5681 5681 5682 5683 5684 5685 5687 5688 5689 5691 5694 5696 5698 5700 5702 5705 5708 5711 5714 5717 5721 5724 5728 5731 5735 5738 5741 5747 5752 5752 5753 5756 5760 5764 5766 5768 5771 5773 5775 5778 5780 5782 5784 5785 5786 5787 5788 5790 5792 5794 5797 5800 5804 5806 5807 5807 5809 5810 5812 5812 5814 5816 5818 5818 5818 5821 5822 5822 5825 5826 5828 5829 5831 5832 5833 5834 5836 5837 5838 5839 5841 5841 5842
5673 5673 5673 5673 5674 5675 5675 5676 5677 5678 5679 5680 5681 5683 5685 5687 5690 5692 5694 5697 5700 5703 5705 5708 5712 5715 5718 5722 5726 5729 5733 5736 5742 5745 5746 5748 5751 5757 5761 5762 5765 5767 5769 5772 5775 5777 5779 5781 5783 5784 5785 5786 5788 5790 5792 5795 5798 5802 5804 5804 5805 5806 5808 5809 5809 5811 5813 5815 5815 5816 5818 5820 5821 5823 5824 5826 5828 5829 5830 5831 5833 5834 5836 5836 5838 5840 5840 5840
5666 5667 5667 5667 5667 5668 5669 5670 5671 5672 5673 5675 5675 5676 5678 5681 5683 5686 5689 5691 5694 5697 5700 5703 5706 5709 5713 5716 5720 5723 5727 5731 5736 5740 5742 5744 5748 5753 5756 5758 5761 5763 5766 5770 5772 5774 5777 5779 5780 5782 5783 5784 5786 5788 5789 5792 5795 5799 5801 5801 5801 5803 5806 5807 5807 5809 5811 5812 5813 5813 5816 5817 5819 5821 5822 5824 5826 5827 5828 5830 5831 5833 5834 5835 5837 5838 5838 5839
5659 5659 5659 5660 5660 5661 5662 5663 5664 5666 5667 5669 5670 5670 5672 5674 5677 5680 5683 5686 5689 5692 5695 5698 5701 5704 5707 5711 5714 5718 5723 5726 5731 5736 5738 5740 5744 5749 5752 5754 5757 5760 5763 5767 5769 5772 5774 5776 5778 5779 5780 5782 5784 5785 5786 5788 5792 5797 5798 5798 5798 5801 5804 5805 5805 5808 5809 5810 5811 5812 5814 5815 5817 5819 5820 5823 5825 5825 5827 5828 5829 5830 5832 5833 5835 5836 5837 5837
5651 5651 5651 5652 5653 5654 5655 5656 5658 5659 5661 5663 5664 5665 5666 5668 5671 5674 5677 5680 5683 5686 5690 5693 5696 5699 5702 5706 5709 5713 5718 5722 5726 5731 5734 5736 5740 5744 5747 5750 5753 5757 5760 5763 5766 5768 5771 5773 5775 5777 5778 5780 5781 5782 5783 5786 5790 5795 5796 5795 5796 5799 5802 5803 5804 5806 5807 5807 5809 5810 5812 5813 5815 5816 5818 5821 5823 5823 5824 5825 5827 5828 5829 5831 5833 5834 5835 5836
5642 5642 5643 5644 5645 5646 5647 5649 5651 5652 5654 5656 5657 5659 5660 5662 5664 5668 5671 5674 5678 5681 5684 5687 5691 5694 5697 5701 5704 5709 5714 5716 5720 5724 5728 5731 5735 5739 5743 5747 5750 5753 5757 5759 5762 5765 5768 5771 5772 5774 5775 5777 5778 5779 5781 5784 5788 5792 5793 5791 5793 5796 5798 5800 5802 5804 5805 5805 5806 5809 5810 5811 5814 5815 5816 5819 5820 5819 5821 5822 5824 5825 5827 5829 5831 5832 5834 5834
5632 5632 5633 5634 5636 5638 5639 5641 5643 5645 5647 5649 5651 5653 5654 5657 5659 5662 5665 5668 5672 5675 5678 5682 5685 5689 5692 5696 5700 5705 5709 5711 5714 5719 5723 5726 5730 5735 5739 5742 5746 5749 5752 5755 5759 5762 5765 5767 5769 5771 5772 5774 5775 5777 5779 5782 5786 5789 5788 5788 5790 5792 5794 5797 5799 5801 5802 5803 5804 5807 5809 5810 5812 5814 5815 5817 5818 5817 5818 5820 5822 5824 5825 5827 5829 5831 5832 5833
5621 5622 5623 5624 5626 5628 5630 5632 5635 5637 5640 5642 5644 5646 5648 5651 5653 5656 5659 5662 5666 5669 5673 5677 5680 5684 5688 5691 5696 5701 5704 5706 5710 5714 5719 5723 5726 5730 5734 5738 5742 5745 5748 5752 5756 5758 5761 5763 5765 5767 5770 5771 5773 5775 5777 5780 5783 5785 5785 5787 5788 5790 5791 5794 5796 5798 5800 5801 5803 5806 5808 5809 5811 5813 5813 5815 5817 5815 5816 5818 5819 5821 5824 5825 5827 5828 5829 5830
5608 5610 5612 5613 5616 5618 5621 5624 5626 5628 5632 5635 5638 5639 5642 5645 5648 5650 5653 5656 5660 5664 5668 5671 5675 5679 5682 5688 5693 5695 5698 5700 5705 5710 5714 5718 5722 5726 5730 5734 5738 5742 5745 5749 5752 5754 5756 5759 5762 5764 5767 5769 5771 5773 5775 5777 5780 5782 5783 5785 5787 5787 5789 5793 5796 5797 5799 5801 5802 5806 5808 5808 5810 5811 5811 5812 5815 5814 5813 5815 5817 5819 5821 5823 5825 5826 5827 5828
5596 5597 5599 5601 5604 5607 5610 5614 5617 5619 5623 5627 5630 5633 5635 5638 5642 5645 5647 5650 5654 5658 5662 5666 5670 5673 5678 5684 5687 5689 5692 5695 5700 5705 5708 5713 5717 5721 5726 5730 5735 5738 5742 5746 5748 5750 5752 5756 5758 5761 5764 5766 5768 5770 5773 5775 5777 5779 5781 5784 5785 5785 5786 5791 5795 5797 5800 5802 5803 5806 5807 5808 5809 5810 5810 5810 5812 5812 5812 5813 5815 5817 5819 5821 5822 5824 5825 5827
5583 5583 5585 5588 5592 5596 5599 5603 5607 5611 5614 5618 5623 5626 5629 5632 5636 5639 5642 5645 5648 5652 5656 5661 5665 5668 5674 5679 5680 5683 5688 5691 5696 5701 5704 5709 5713 5716 5721 5726 5730 5735 5739 5742 5744 5746 5749 5752 5755 5758 5761 5763 5765 5768 5771 5773 5775 5776 5779 5782 5783 5784 5785 5788 5793 5796 5800 5802 5804 5805 5805 5806 5807 5808 5808 5807 5808 5809 5810 5811 5813 5815 5817 5818 5819 5821 5823 5825
5569 5569 5571 5574 5578 5583 5588 5592 5597 5602 5605 5610 5614 5618 5622 5626 5629 5633 5636 5639 5643 5646 5650 5655 5659 5664 5669 5672 5674 5679 5684 5688 5692 5696 5701 5705 5709 5713 5717 5722 5726 5730 5734 5737 5740 5743 5746 5749 5752 5755 5758 5760 5762 5765 5768 5770 5772 5774 5777 5780 5781 5783 5785 5786 5790 5796 5800 5802 5803 5803 5802 5803 5803 5804 5805 5806 5805 5806 5807 5809 5811 5812 5814 5815 5817 5818 5820 5822
5555 5555 5557 5559 5564 5569 5575 5581 5587 5592 5596 5601 5605 5610 5615 5619 5623 5627 5630 5634 5638 5641 5646 5650 5654 5659 5663 5667 5671 5674 5679 5683 5687 5691 5696 5701 5706 5709 5713 5718 5722 5726 5729 5732 5736 5739 5742 5746 5749 5752 5755 5757 5760 5763 5765 5767 5769 5771 5774 5777 5780 5782 5784 5784 5788 5795 5799 5800 5801 5800 5800 5800 5800 5802 5804 5804 5804 5804 5805 5806 5808 5809 5810 5811 5813 5815 5817 5819
5542 5542 5543 5546 5550 5555 5562 5569 5575 5581 5586 5591 5597 5602 5607 5612 5616 5620 5624 5628 5633 5637 5641 5645 5649 5654 5658 5663 5666 5668 5674 5678 5682 5687 5692 5696 5701 5705 5709 5713 5718 5722 5725 5728 5731 5735 5739 5742 5746 5749 5751 5754 5757 5760 5762 5764 5767 5769 5772 5776 5778 5781 5783 5783 5787 5793 5796 5797 5798 5799 5799 5799 5798 5800 5801 5802 5802 5801 5802 5803 5805 5808 5809 5810 5812 5814 5815 5817
5531 5531 5531 5533 5537 5542 5549 5556 5563 5570 5576 5582 5588 5594 5599 5605 5610 5614 5618 5623 5628 5632 5637 5641 5645 5649 5653 5658 5660 5664 5670 5674 5678 5682 5687 5691 5695 5699 5704 5708 5712 5717 5720 5724 5727 5731 5735 5738 5742 5745 5748 5751 5754 5756 5759 5764 5767 5769 5772 5774 5777 5779 5781 5783 5787 5791 5793 5794 5796 5797 5797 5796 5796 5797 5798 5798 5798 5797 5798 5799 5802 5806 5808 5809 5811 5813 5814 5816
5522 5521 5521 5523 5526 5531 5536 5543 5550 5558 5566 5573 5580 5586 5592 5598 5603 5608 5613 5617 5623 5628 5632 5636 5641 5644 5648 5653 5656 5660 5666 5670 5674 5678 5682 5686 5690 5694 5699 5703 5708 5712 5715 5719 5723 5726 5730 5734 5738 5741 5744 5748 5752 5755 5760 5764 5767 5768 5771 5773 5775 5778 5780 5783 5786 5788 5790 5791 5793 5794 5794 5794 5794 5795 5795 5793 5793 5793 5795 5797 5800 5802 5805 5808 5810 5812 5813 5815
5513 5512 5512 5513 5516 5520 5525 5531 5539 5547 5556 5564 5572 5578 5584 5590 5596 5601 5607 5613 5618 5622 5627 5632 5636 5640 5644 5649 5653 5656 5661 5666 5670 5674 5678 5682 5686 5690 5694 5698 5703 5707 5711 5715 5718 5722 5726 5730 5734 5739 5745 5749 5751 5755 5759 5762 5764 5766 5768 5770 5773 5776 5779 5782 5783 5785 5787 5788 5790 5791 5791 5791 5793 5794 5793 5792 5791 5792 5792 5794 5797 5800 5803 5806 5809 5810 5812 5814
5505 5504 5504 5505 5507 5510 5515 5521 5528 5537 5546 5554 5562 5569 5575 5582 5589 5595 5603 5609 5613 5617 5623 5629 5633 5637 5641 5645 5649 5653 5657 5662 5666 5670 5674 5679 5683 5686 5690 5694 5698 5702 5707 5711 5714 5719 5722 5725 5731 5739 5743 5746 5749 5753 5757 5759 5761 5763 5765 5768 5771 5774 5778 5779 5780 5781 5784 5785 5787 5788 5788 5789 5790 5790 5790 5792 5793 5792 5792 5793 5795 5799 5802 5804 5806 5808 5811 5813
5499 5497 5496 5497 5498 5501 5506 5512 5519 5527 5536 5544 5553 5561 5566 5574 5582 5591 5598 5604 5609 5614 5619 5625 5629 5633 5636 5641 5645 5650 5654 5658 5663 5666 5671 5675 5680 5683 5687 5690 5695 5699 5703 5707 5710 5714 5717 5721 5729 5735 5739 5742 5745 5749 5753 5756 5759 5761 5763 5766 5769 5773 5776 5776 5777 5779 5780 5782 5784 5786 5786 5786 5787 5787 5788 5791 5793 5794 5795 5794 5795 5798 5801 5803 5805 5807 5809 5810
5494 5491 5490 5489 5491 5494 5498 5504 5510 5518 5527 5535 5544 5551 5558 5568 5578 5587 5594 5600 5605 5609 5615 5621 5625 5628 5631 5636 5641 5646 5650 5654 5659 5664 5668 5672 5676 5681 5684 5687 5691 5695 5700 5703 5707 5710 5713 5719 5727 5732 5735 5738 5742 5746 5750 5753 5756 5758 5760 5763 5767 5771 5773 5773 5774 5776 5777 5780 5782 5784 5784 5784 5785 5785 5786 5789 5791 5793 5795 5794 5794 5797 5799 5801 5803 5806 5808 5809
5489 5486 5484 5483 5485 5488 5492 5497 5504 5511 5519 5526 5533 5542 5554 5565 5575 5583 5590 5596 5601 5605 5611 5617 5620 5623 5627 5632 5637 5641 5645 5649 5655 5661 5665 5669 5673 5677 5681 5685 5689 5692 5696 5700 5704 5708 5712 5719 5725 5729 5733 5735 5739 5743 5747 5751 5753 5755 5758 5762 5766 5769 5770 5771 5772 5774 5775 5777 5780 5782 5782 5781 5781 5782 5784 5787 5789 5791 5792 5793 5793 5795 5797 5800 5802 5804 5806 5807
5484 5481 5480 5479 5481 5484 5488 5493 5498 5505 5512 5518 5527 5539 5552 5562 5570 5578 5585 5590 5596 5601 5607 5612 5616 5619 5623 5628 5634 5638 5641 5645 5651 5656 5661 5666 5670 5674 5678 5682 5686 5690 5694 5697 5701 5705 5709 5716 5723 5727 5730 5733 5736 5741 5745 5749 5751 5753 5757 5760 5764 5766 5767 5769 5771 5772 5773 5774 5777 5779 5779 5778 5778 5779 5783 5785 5787 5790 5791 5791 5792 5793 5795 5798 5800 5802 5804 5806
5480 5477 5476 5475 5478 5482 5485 5488 5493 5499 5505 5512 5524 5538 5549 5557 5564 5573 5579 5586 5592 5597 5602 5607 5611 5615 5619 5626 5632 5635 5638 5643 5648 5652 5658 5663 5666 5671 5675 5679 5683 5687 5691 5694 5698 5701 5706 5713 5719 5723 5727 5730 5733 5738 5743 5746 5748 5751 5755 5758 5761 5762 5765 5767 5769 5770 5771 5773 5776 5777 5776 5776 5776 5777 5780 5784 5787 5788 5789 5791 5792 5793 5794 5796 5798 5800 5802 5804
5477 5475 5473 5473 5475 5478 5481 5486 5490 5496 5503 5511 5523 5534 5543 5552 5560 5569 5575 5581 5588 5593 5598 5603 5607 5611 5616 5623 5628 5631 5636 5640 5643 5648 5655 5660 5664 5668 5671 5675 5680 5685 5688 5692 5695 5698 5704 5710 5715 5719 5723 5726 5730 5736 5741 5744 5746 5749 5753 5756 5758 5760 5762 5765 5767 5768 5769 5771 5774 5774 5774 5775 5775 5776 5778 5781 5784 5786 5787 5789 5791 5791 5792 5795 5797 5799 5800 5801
5477 5474 5473 5473 5474 5478 5482 5486 5490 5495 5501 5510 5520 5529 5537 5546 5556 5564 5570 5576 5583 5588 5593 5598 5603 5608 5613 5618 5624 5628 5633 5637 5641 5646 5652 5656 5661 5665 5668 5672 5678 5683 5687 5690 5692 5696 5702 5708 5713 5716 5719 5722 5728 5734 5739 5741 5744 5747 5751 5754 5756 5759 5761 5764 5766 5766 5768 5769 5770 5770 5771 5772 5773 5774 5775 5778 5780 5782 5785 5786 5788 5789 5791 5793 5795 5797 5799 5800
5478 5475 5474 5474 5476 5480 5484 5487 5490 5494 5500 5508 5517 5524 5532 5541 5551 5559 5565 5571 5578 5583 5588 5594 5600 5605 5610 5615 5621 5625 5628 5633 5638 5643 5648 5652 5657 5661 5665 5670 5676 5680 5684 5687 5691 5695 5700 5706 5710 5713 5717 5722 5727 5732 5736 5739 5742 5745 5748 5751 5755 5757 5759 5762 5762 5763 5765 5766 5766 5768 5769 5770 5771 5772 5773 5774 5776 5780 5783 5785 5785 5787 5789 5792 5794 5795 5797 5798
5479 5477 5476 5476 5478 5482 5485 5488 5491 5495 5500 5506 5513 5521 5530 5539 5548 5555 5561 5568 5574 5579 5584 5591 5598 5602 5607 5613 5618 5621 5624 5628 5633 5638 5643 5648 5653 5657 5661 5667 5673 5677 5681 5683 5687 5693 5698 5703 5707 5710 5715 5720 5725 5730 5733 5736 5740 5742 5746 5749 5752 5754 5756 5758 5759 5760 5762 5762 5764 5767 5767 5767 5769 5770 5771 5773 5777 5780 5782 5783 5784 5786 5787 5789 5792 5793 5795 5796
5481 5479 5479 5480 5482 5484 5487 5490 5493 5496 5501 5505 5512 5519 5527 5535 5544 5551 5558 5565 5571 5576 5581 5588 5594 5599 5604 5611 5616 5618 5621 5625 5629 5633 5638 5643 5648 5652 5656 5661 5666 5672 5675 5678 5682 5688 5694 5698 5703 5707 5712 5716 5722 5726 5729 5732 5735 5739 5742 5746 5749 5751 5753 5754 5755 5756 5756 5758 5763 5765 5764 5765 5766 5767 5770 5773 5777 5779 5780 5782 5783 5784 5786 5787 5789 5791 5793 5794
5483 5482 5483 5484 5486 5488 5490 5492 5495 5498 5502 5507 5513 5519 5526 5533 5542 5549 5555 5562 5568 5573 5579 5585 5592 5596 5601 5607 5612 5616 5620 5623 5627 5631 5636 5641 5644 5648 5653 5657 5661 5665 5668 5672 5677 5683 5689 5694 5699 5703 5707 5712 5717 5721 5723 5726 5730 5734 5737 5741 5744 5747 5749 5749 5750 5751 5752 5756 5761 5762 5762 5763 5764 5766 5770 5772 5775 5777 5778 5780 5781 5783 5784 5786 5788 5789 5790 5791
5486 5486 5487 5488 5489 5491 5493 5494 5497 5501 5505 5509 5515 5520 5525 5533 5541 5547 5553 5560 5565 5571 5577 5583 5589 5594 5598 5604 5608 5612 5617 5622 5626 5630 5635 5639 5643 5648 5651 5655 5660 5664 5666 5670 5674 5679 5684 5689 5694 5698 5702 5707 5712 5715 5717 5721 5725 5729 5732 5735 5738 5741 5742 5743 5745 5747 5750 5754 5757 5759 5761 5761 5761 5764 5767 5769 5772 5774 5775 5777 5779 5781 5783 5784 5786 5787 5788 5789
5490 5489 5490 5491 5492 5494 5495 5497 5500 5504 5507 5511 5516 5521 5527 5534 5540 5546 5552 5558 5563 5569 5576 5582 5586 5591 5595 5601 5606 5610 5614 5619 5624 5628 5632 5636 5640 5645 5648 5653 5658 5661 5666 5669 5673 5677 5681 5685 5689 5693 5698 5703 5708 5712 5716 5720 5725 5727 5730 5733 5735 5737 5739 5741 5743 5745 5748 5751 5754 5756 5757 5756 5757 5761 5764 5766 5769 5770 5771 5774 5777 5779 5781 5783 5784 5785 5786 5787
5492 5492 5493 5494 5495 5496 5498 5500 5503 5506 5509 5513 5517 5522 5529 5535 5541 5546 5551 5556 5562 5568 5575 5580 5585 5588 5592 5597 5603 5608 5613 5617 5621 5625 5629 5633 5637 5642 5645 5650 5654 5658 5662 5666 5670 5675 5679 5683 5688 5692 5696 5701 5705 5709 5713 5717 5722 5725 5727 5729 5732 5736 5739 5741 5743 5746 5748 5750 5751 5752 5753 5753 5755 5759 5762 5763 5765 5767 5768 5771 5774 5777 5780 5781 5783 5784 5784 5785
5494 5494 5495 5496 5497 5498 5501 5503 5506 5508 5511 5515 5520 5525 5531 5537 5541 5545 5550 5555 5561 5567 5572 5578 5582 5586 5590 5595 5600 5605 5609 5614 5619 5623 5627 5631 5635 5640 5643 5648 5653 5656 5660 5663 5667 5672 5676 5681 5687 5691 5695 5700 5703 5707 5710 5713 5717 5720 5722 5725 5731 5736 5738 5739 5742 5745 5746 5747 5748 5749 5750 5751 5754 5756 5758 5760 5762 5764 5767 5769 5773 5775 5778 5780 5781 5782 5782 5783
5495 5496 5496 5498 5499 5501 5504 5506 5508 5511 5514 5518 5523 5528 5534 5538 5542 5546 5550 5555 5560 5565 5570 5575 5580 5585 5589 5594 5598 5603 5606 5610 5615 5620 5624 5628 5632 5637 5641 5646 5651 5655 5659 5662 5666 5670 5674 5679 5684 5688 5693 5698 5702 5705 5708 5711 5714 5717 5720 5725 5730 5733 5734 5737 5740 5741 5742 5744 5745 5746 5747 5749 5751 5753 5755 5757 5759 5762 5765 5768 5771 5773 5775 5777 5779 5780 5780 5781
5496 5497 5498 5499 5501 5504 5507 5509 5511 5513 5516 5521 5526 5532 5536 5539 5542 5546 5550 5555 5560 5565 5570 5574 5579 5584 5589 5593 5597 5601 5604 5608 5612 5617 5621 5625 5629 5634 5639 5643 5648 5652 5657 5661 5665 5669 5673 5678 5683 5686 5691 5696 5699 5702 5704 5707 5711 5716 5721 5724 5727 5728 5730 5734 5735 5736 5738 5740 5741 5742 5744 5747 5749 5750 5753 5757 5759 5762 5764 5767 5769 5772 5773 5775 5776 5777 5778 5778
5498 5499 5500 5502 5504 5507 5510 5512 5514 5516 5519 5524 5529 5533 5536 5539 5543 5547 5551 5556 5561 5565 5570 5574 5579 5584 5588 5593 5596 5600 5603 5607 5612 5616 5620 5624 5628 5633 5637 5641 5645 5650 5654 5658 5663 5667 5671 5676 5681 5684 5689 5693 5694 5696 5700 5703 5708 5714 5717 5720 5723 5727 5729 5732 5733 5734 5735 5737 5739 5740 5741 5743 5746 5748 5752 5757 5759 5762 5764 5766 5768 5770 5771 5773 5774 5774 5774 5775
5500 5502 5504 5506 5508 5510 5513 5514 5516 5518 5521 5526 5530 5533 5536 5540 5544 5549 5553 5558 5562 5566 5570 5575 5579 5583 5587 5592 5595 5598 5602 5606 5610 5615 5619 5623 5627 5632 5635 5639 5644 5648 5652 5656 5660 5664 5668 5673 5678 5681 5686 5688 5689 5693 5698 5702 5706 5709 5711 5714 5718 5722 5726 5729 5731 5732 5734 5735 5737 5738 5738 5741 5745 5748 5752 5755 5757 5760 5762 5764 5766 5768 5769 5770 5770 5771 5771 5772
5506 5508 5510 5511 5513 5514 5515 5516 5518 5520 5524 5528 5532 5535 5539 5543 5547 5551 5556 5559 5563 5567 5571 5575 5579 5583 5587 5590 5593 5597 5601 5605 5609 5613 5618 5622 5627 5631 5634 5638 5642 5647 5650 5653 5657 5661 5665 5670 5675 5678 5681 5685 5688 5693 5698 5702 5704 5707 5709 5711 5715 5718 5721 5724 5726 5728 5731 5733 5734 5736 5737 5741 5745 5747 5749 5752 5754 5757 5759 5761 5763 5765 5766 5767 5768 5768 5768 5769
5513 5514 5515 5516 5517 5519 5519 5520 5522 5525 5528 5531 5535 5539 5543 5546 5550 5553 5557 5562 5565 5569 5572 5576 5580 5584 5587 5590 5593 5596 5600 5603 5607 5611 5616 5621 5625 5629 5633 5636 5641 5645 5647 5651 5656 5659 5663 5668 5671 5675 5678 5682 5687 5692 5696 5700 5702 5705 5708 5710 5714 5716 5719 5722 5724 5726 5729 5730 5732 5735 5736 5739 5742 5744 5747 5749 5751 5754 5757 5759 5761 5762 5763 5764 5765 5765 5766 5766
5519 5519 5520 5520 5521 5523 5524 5526 5528 5530 5532 5535 5539 5542 5546 5549 5552 5555 5559 5564 5567 5570 5573 5576 5580 5584 5587 5590 5593 5596 5599 5602 5606 5611 5616 5620 5624 5628 5632 5635 5639 5643 5646 5650 5654 5658 5662 5666 5670 5673 5676 5680 5685 5689 5693 5696 5699 5701 5704 5707 5711 5714 5717 5720 5723 5726 5728 5729 5731 5734 5734 5737 5740 5742 5744 5746 5749 5752 5754 5756 5758 5759 5760 5761 5762 5762 5763 5764
5524 5525 5525 5525 5526 5528 5530 5532 5534 5535 5537 5539 5542 5545 5548 5551 5554 5557 5562 5566 5569 5572 5574 5577 5580 5583 5587 5590 5593 5596 5599 5602 5606 5610 5615 5620 5624 5628 5631 5633 5637 5641 5645 5649 5652 5656 5660 5664 5668 5671 5674 5677 5680 5684 5687 5691 5694 5697 5701 5704 5708 5712 5715 5718 5721 5723 5725 5727 5729 5731 5732 5735 5738 5740 5742 5744 5747 5749 5751 5753 5755 5756 5757 5758 5759 5759 5760 5761
5530 5531 5532 5533 5534 5536 5537 5537 5538 5539 5540 5542 5545 5548 5550 5554 5557 5560 5563 5566 5569 5572 5575 5577 5580 5583 5587 5589 5592 5596 5599 5602 5606 5610 5615 5619 5623 5627 5629 5631 5635 5639 5644 5648 5652 5655 5659 5662 5665 5668 5670 5673 5676 5679 5682 5686 5690 5694 5698 5701 5706 5709 5711 5714 5717 5719 5721 5723 5726 5727 5729 5732 5736 5738 5740 5743 5745 5747 5749 5750 5752 5753 5754 5754 5755 5756 5757 5757
5537 5539 5540 5541 5540 5540 5541 5541 5541 5542 5543 5545 5547 5550 5554 5557 5560 5562 5564 5566 5569 5571 5574 5577 5580 5583 5586 5589 5592 5595 5598 5601 5605 5609 5614 5618 5621 5624 5626 5629 5633 5637 5642 5646 5649 5653 5657 5660 5664 5666 5669 5672 5676 5680 5683 5686 5689 5691 5694 5698 5702 5705 5708 5711 5713 5715 5718 5721 5722 5724 5726 5729 5732 5736 5739 5741 5743 5745 5746 5747 5748 5749 5750 5751 5752 5752 5753 5753
5545 5545 5546 5545 5545 5544 5544 5545 5545 5545 5547 5548 5551 5554 5557 5560 5562 5564 5566 5568 5570 5572 5574 5577 5581 5584 5586 5589 5592 5595 5598 5600 5604 5609 5614 5617 5619 5622 5625 5628 5631 5635 5639 5643 5646 5650 5653 5657 5661 5665 5668 5672 5676 5680 5683 5686 5688 5690 5693 5696 5699 5702 5704 5707 5709 5712 5716 5718 5720 5722 5724 5727 5730 5733 5736 5739 5740 5742 5743 5744 5744 5745 5746 5747 5748 5749 5749 5749
5550 5551 5551 5550 5550 5550 5550 5550 5550 5551 5552 5553 5555 5558 5560 5562 5564 5567 5568 5570 5572 5575 5577 5580 5583 5585 5587 5590 5593 5595 5598 5601 5605 5610 5614 5617 5619 5622 5625 5628 5631 5633 5636 5640 5644 5647 5651 5656 5659 5663 5667 5670 5673 5676 5680 5684 5687 5689 5691 5694 5696 5699 5701 5704 5707 5710 5713 5715 5717 5720 5722 5725 5728 5731 5733 5735 5736 5738 5739 5739 5740 5741 5742 5744 5744 5745 5745 5746
5555 5555 5555 5555 5555 5555 5555 5555 5555 5556 5557 5558 5559 5561 5562 5564 5566 5568 5570 5572 5574 5577 5580 5583 5585 5587 5589 5591 5594 5596 5599 5602 5606 5611 5614 5617 5619 5622 5624 5627 5629 5632 5634 5638 5641 5645 5650 5654 5657 5660 5664 5668 5671 5674 5677 5681 5684 5687 5689 5692 5694 5697 5700 5702 5704 5707 5709 5712 5714 5717 5719 5722 5725 5727 5729 5730 5732 5734 5735 5735 5736 5738 5739 5740 5740 5741 5742 5742
5559 5559 5559 5558 5558 5559 5559 5559 5559 5560 5561 5562 5562 5563 5565 5567 5568 5570 5572 5574 5576 5578 5581 5584 5587 5588 5591 5593 5595 5597 5599 5602 5606 5611 5614 5616 5618 5620 5622 5625 5627 5630 5633 5636 5639 5644 5648 5651 5654 5658 5662 5666 5669 5673 5675 5678 5681 5684 5687 5689 5692 5694 5697 5699 5701 5703 5706 5708 5711 5713 5715 5717 5720 5723 5725 5727 5729 5730 5731 5732 5733 5735 5736 5736 5737 5737 5738 5739
5562 5562 5562 5562 5562 5562 5562 5562 5562 5563 5564 5565 5565 5566 5567 5569 5571 5572 5574 5576 5578 5581 5583 5586 5587 5589 5592 5594 5596 5598 5600 5603 5606 5610 5613 5615 5617 5619 5621 5624 5626 5629 5632 5635 5638 5642 5646 5649 5651 5655 5659 5663 5666 5670 5673 5676 5679 5682 5684 5687 5689 5691 5693 5695 5697 5700 5703 5705 5707 5709 5712 5715 5718 5720 5721 5723 5725 5726 5727 5729 5730 5731 5732 5733 5733 5734 5735 5736
5565 5565 5565 5565 5565 5565 5565 5565 5565 5566 5567 5567 5568 5568 5570 5571 5573 5574 5576 5578 5581 5583 5585 5587 5589 5591 5593 5595 5597 5599 5601 5603 5607 5610 5612 5614 5617 5619 5621 5624 5626 5628 5631 5633 5636 5640 5644 5646 5650 5654 5657 5660 5664 5667 5670 5673 5676 5678 5681 5683 5686 5688 5690 5693 5695 5697 5700 5702 5704 5707 5710 5713 5715 5717 5718 5720 5722 5723 5724 5726 5727 5728 5729 5729 5730 5731 5732 5733